FW3345 Weather Reports


Display with metric or nautical units.
time (UTC)temp
F
wind
direction
speed
MPH
gust
MPH
rain 1hr
in
rain 24hr
in
rain mn
in
humidity
%
barometer
mb
20260505061458 59 360 2.0 5.0 0.00 0.00 0.00 67 1015.7
20260505055958 59 360 2.0 4.0 0.00 0.00 0.00 66 1015.9
20260505051457 61 360 2.0 5.0 0.00 0.00 0.00 63 1015.9
20260505040006 63 360 3.0 8.0 0.00 0.00 0.00 57 1016.2
20260505034500 63 360 4.0 9.0 0.00 0.00 0.00 56 1016.2
20260505033000 63 360 2.0 5.0 0.00 0.00 0.00 53 1016.1
20260505031459 63 360 1.0 4.0 0.00 0.00 0.00 52 1016.1
20260505030001 63 360 0.0 2.0 0.00 0.00 0.00 51 1016.1
20260505021459 65 360 1.0 4.0 0.00 0.00 0.00 47 1016.0
20260505014500 66 360 1.0 3.0 0.00 0.00 0.00 45 1015.6
20260505011459 65 360 0.0 2.0 0.00 0.00 0.00 45 1015.4
20260505010008 66 360 0.0 0.0 0.00 0.00 0.00 46 1015.2
20260505004459 68 360 0.0 0.0 0.00 0.00 0.00 39 1015.1
20260505000002 72 360 0.0 1.0 0.00 0.00 0.00 33 1014.8
20260504234459 73 360 0.0 1.0 0.00 0.00 0.00 32 1014.6
20260504233002 75 360 0.0 2.0 0.00 0.00 0.00 30 1014.4
20260504230005 76 360 0.0 1.0 0.00 0.00 0.00 29 1014.3
20260504224459 77 360 0.0 1.0 0.00 0.00 0.00 30 1014.4
20260504223000 78 360 0.0 1.0 0.00 0.00 0.00 31 1014.3
20260504221459 79 360 0.0 1.0 0.00 0.00 0.00 27 1014.3
20260504220001 79 360 0.0 1.0 0.00 0.00 0.00 24 1014.2
20260504214459 80 360 0.0 1.0 0.00 0.00 0.00 27 1014.4
20260504213002 79 360 0.0 1.0 0.00 0.00 0.00 28 1014.4
20260504211500 81 360 0.0 1.0 0.00 0.00 0.00 26 1014.3
20260504210003 80 360 0.0 1.0 0.00 0.00 0.00 25 1014.4
20260504204459 80 360 0.0 1.0 0.00 0.00 0.00 24 1014.6
20260504203001 80 360 0.0 1.0 0.00 0.00 0.00 24 1014.8
20260504200000 80 360 0.0 1.0 0.00 0.00 0.00 26 1014.9
20260504194459 79 360 0.0 1.0 0.00 0.00 0.00 24 1015.0
20260504193001 80 360 0.0 2.0 0.00 0.00 0.00 28 1015.1
20260504190003 78 360 0.0 2.0 0.00 0.00 0.00 28 1015.6
20260504184459 78 360 0.0 1.0 0.00 0.00 0.00 28 1016.0
20260504183000 77 360 0.0 1.0 0.00 0.00 0.00 29 1016.3
20260504181459 77 360 0.0 1.0 0.00 0.00 0.00 30 1016.5
20260504180001 76 360 0.0 1.0 0.00 0.00 0.00 35 1016.5
20260504174459 76 360 0.0 1.0 0.00 0.00 0.00 35 1016.6
20260504171459 75 360 0.0 1.0 0.00 0.00 0.00 33 1016.8
20260504081459 48 360 0.0 3.0 0.00 0.00 0.00 79 1017.6